Juliana Airport, Sint Maarten

4:53 PM AST on August 21, 2017 (GMT -0400)
Princess Juliana International

Weather History for TNCM - November, 2013

Change the Weather History Date:

Wednesday, November 6, 2013

  Actual Average Record
Temperature  
Mean Temperature 82 °F -  
Max Temperature 85 °F 84 °F 87 °F (1996)
Min Temperature 79 °F 74 °F 75 °F (2000)
Cooling Degree Days 17    
Growing Degree Days 32 (Base 50)    
Moisture  
Dew Point 73 °F    
Average Humidity 71    
Maximum Humidity 83    
Minimum Humidity 58    
Precipitation  
Precipitation 0.00 in 0.16 in - ()
Sea Level Pressure  
Sea Level Pressure 29.89 in    
Wind  
Wind Speed 5 mph ()    
Max Wind Speed 10 mph    
Max Gust Speed -    
Visibility 7.2 miles    
Events Rain    
Averages and records for this station are not official NWS values.
T = Trace of Precipitation, MM = Missing Value Source: Averaged Metar Reports

Daily Weather History Graph

Daily Weather History Graph

Search for Another Location

Airport or City:

Trip Planner

Search our weather history database for the weather conditions in past years. The results will help you decide how hot, cold, wet, or windy it might be!

Date:

Astronomy

Nov. 06, 2013 Rise Set
Actual Time 6:13 AM AST 5:37 PM AST
Civil Twilight 5:51 AM AST 6:00 PM AST
Nautical Twilight 5:25 AM AST 6:26 PM AST
Astronomical Twilight 4:59 AM AST 6:52 PM AST
Moon 9:13 AM AST (11/6) 8:47 PM AST (11/6)
Length of Visible Light 12h 09m
Length of Day
11h 24m
Waxing Crescent, 13% of the Moon is Illuminated
Nov 6
Waxing Crescent
Nov 10
First Quarter
Nov 17
Full
Nov 25
Last Quarter
Dec 2
New

Hourly Weather History & Observations

Time (AST) Temp. Heat Index Dew Point Humidity Pressure Visibility Wind Dir Wind Speed Gust Speed Precip Events Conditions
12:00 AM 80.6 °F 84.6 °F 71.6 °F 74% 29.89 in 6.2 mi Variable 3.5 mph - N/A   Partly Cloudy
1:00 AM 80.6 °F 85.4 °F 73.4 °F 79% 29.89 in 6.2 mi East 4.6 mph - N/A   Partly Cloudy
2:00 AM 81 °F - 72 °F 68% 29.88 in 31 mi 3.5 mph - -   Partly Cloudy
2:00 AM 80.6 °F 85.4 °F 73.4 °F 79% 29.86 in 6.2 mi Variable 3.5 mph - N/A   Mostly Cloudy
3:00 AM 80.6 °F 85.4 °F 73.4 °F 79% 29.86 in 6.2 mi Variable 3.5 mph - N/A   Partly Cloudy
4:00 AM 80.6 °F 85.4 °F 73.4 °F 79% 29.86 in 6.2 mi Variable 3.5 mph - N/A Rain Light Rain Showers
5:00 AM 80 °F - 73 °F 75% 29.88 in 31 mi 2.3 mph - - Rain Light Rain Showers
5:00 AM 78.8 °F - 73.4 °F 83% 29.86 in 6.2 mi Variable 2.3 mph - N/A   Mostly Cloudy
6:00 AM 80.6 °F 84.6 °F 71.6 °F 74% 29.86 in 6.2 mi SE 6.9 mph - N/A Rain Light Rain Showers
7:00 AM 82.4 °F 87.2 °F 71.6 °F 70% 29.89 in 6.2 mi SE 8.1 mph - N/A   Partly Cloudy
8:00 AM 83 °F - 72 °F 63% 29.90 in 44 mi SE 10.4 mph - -   Partly Cloudy
8:00 AM 84.2 °F 90.9 °F 73.4 °F 70% 29.89 in 6.2 mi SE 10.4 mph - N/A   Partly Cloudy
9:00 AM 84.2 °F 89.6 °F 71.6 °F 66% 29.92 in 6.2 mi SE 10.4 mph - N/A   Partly Cloudy
10:00 AM 84.2 °F 90.9 °F 73.4 °F 70% 29.92 in 6.2 mi SE 9.2 mph - N/A   Scattered Clouds
11:00 AM 84 °F - 73 °F 63% 29.93 in 44 mi SSE 10.4 mph - -   Scattered Clouds
11:00 AM 84.2 °F 90.9 °F 73.4 °F 70% 29.92 in 6.2 mi SE 10.4 mph - N/A   Partly Cloudy
12:00 PM 84.2 °F 89.6 °F 71.6 °F 66% 29.92 in 6.2 mi SE 8.1 mph - N/A   Partly Cloudy
1:00 PM 86.0 °F 93.4 °F 73.4 °F 66% 29.89 in 6.2 mi SE 8.1 mph - N/A   Scattered Clouds
2:00 PM 85 °F - 72 °F 58% 29.89 in 44 mi SE 8.1 mph - -  
2:00 PM 84.2 °F 90.9 °F 73.4 °F 70% 29.89 in 6.2 mi SE 8.1 mph - N/A   Partly Cloudy
3:00 PM 84.2 °F 90.9 °F 73.4 °F 70% 29.86 in 6.2 mi SE 8.1 mph - N/A   Partly Cloudy
4:00 PM 84.2 °F 89.6 °F 71.6 °F 66% 29.86 in 6.2 mi SE 6.9 mph - N/A   Partly Cloudy
5:00 PM 84 °F - 73 °F 61% 29.88 in 44 mi SE 6.9 mph - -   Scattered Clouds
5:00 PM 84.2 °F 90.9 °F 73.4 °F 70% 29.86 in 6.2 mi SE 6.9 mph - N/A   Partly Cloudy
6:00 PM 82.4 °F 87.2 °F 71.6 °F 70% 29.89 in 6.2 mi East 5.8 mph - N/A   Partly Cloudy
7:00 PM 82.4 °F 87.2 °F 71.6 °F 70% 29.89 in 6.2 mi Variable 3.5 mph - N/A   Partly Cloudy
8:00 PM 81 °F - 72 °F 66% 29.93 in 19 mi East 4.6 mph - - Rain Light Rain Showers
8:00 PM 82.4 °F 87.2 °F 71.6 °F 70% 29.92 in 6.2 mi East 4.6 mph - N/A Rain Light Rain Showers
9:00 PM 82.4 °F 88.2 °F 73.4 °F 74% 29.92 in 6.2 mi East 5.8 mph - N/A   Partly Cloudy
10:00 PM 80.6 °F 84.6 °F 71.6 °F 74% 29.92 in 6.2 mi East 5.8 mph - N/A   Partly Cloudy
11:00 PM 81 °F - 73 °F 70% 29.93 in 19 mi East 4.6 mph - -   Partly Cloudy
11:00 PM 80.6 °F 85.4 °F 73.4 °F 79% 29.92 in 6.2 mi East 4.6 mph - N/A   Partly Cloudy